Theta_e
309 311 308 307 309 308 306 305 305 305 304 303 302 300 299 296 294 295 293 292 293 293 293 293 292 292 292 292 291 289 288 286 286 286 285 286 286 288 292 291 290 289 289
298 301 299 298 297 297 296 295 295 296 295 295 295 294 293 293 293 293 293 293 294 294 293 293 291 290 289 289 288 288 288 288 286 285 286 287 286 285 285 285 287 286 285
294 294 293 293 292 292 292 291 292 291 291 291 291 291 291 291 291 291 291 291 290 289 288 288 287 287 286 286 286 286 286 286 286 285 285 285 285 284 284 284 284 284 283
292 291 291 290 290 289 290 289 289 289 288 288 288 288 288 288 289 288 288 288 287 286 285 285 284 284 284 284 285 285 285 285 285 285 285 285 285 285 285 284 284 284 284
290 289 288 288 288 287 286 286 286 285 284 284 284 285 285 285 286 285 285 284 284 283 283 283 282 281 281 281 282 282 282 283 283 284 284 284 283 283 283 283 283 283 283
287 287 286 286 285 285 284 284 283 282 282 282 281 282 282 283 282 282 282 282 281 280 280 279 277 278 278 279 279 280 280 281 281 280 280 278 278 276 276 277 277 278 280
284 284 284 284 283 282 282 281 280 279 279 279 279 279 279 279 280 279 278 277 277 276 276 276 276 276 277 277 276 276 276 276 276 275 274 274 273 273 273 273 273 274 274
281 281 281 281 281 280 279 277 277 277 276 276 277 278 278 279 278 277 276 276 276 275 273 273 275 274 275 275 273 273 273 273 273 271 271 271 271 271 270 271 271 270 269
278 278 278 278 277 277 276 276 276 275 275 275 275 275 276 278 277 276 275 274 274 274 272 271 272 273 274 274 272 271 271 271 270 269 268 268 269 268 268 267 267 266 265
276 275 275 275 275 275 274 274 274 274 274 274 273 273 274 274 277 276 274 274 273 272 271 270 270 273 272 272 270 269 270 269 267 265 265 265 265 265 265 265 264 264 264
275 274 274 274 273 273 273 273 273 273 273 273 272 272 272 273 274 275 274 272 272 270 269 268 268 271 270 270 269 268 269 267 264 263 263 263 263 263 263 262 262 263 263
274 274 274 274 273 273 273 272 272 272 271 271 271 271 271 271 272 273 273 272 272 269 269 267 266 268 268 267 266 267 266 263 262 261 261 261 262 261 261 261 261 261 262
273 273 272 272 272 272 272 272 271 271 270 270 270 270 270 271 271 271 271 271 270 269 268 266 265 265 265 263 263 264 262 261 260 260 260 260 260 260 260 260 261 261 261
271 271 272 272 272 271 271 271 271 271 270 270 269 269 270 271 271 271 271 269 268 268 268 265 263 263 262 262 261 260 260 259 259 259 259 259 259 259 260 260 260 260 260
271 270 270 270 270 270 270 270 270 270 271 270 270 269 268 270 271 271 271 270 268 267 266 262 261 259 259 259 259 258 258 258 258 258 258 258 259 259 260 260 260 260 260
270 269 269 269 269 269 269 269 269 269 269 269 269 269 268 269 270 270 269 268 266 266 262 259 258 258 257 257 257 257 257 257 257 257 257 258 258 259 259 260 260 260 261
270 269 269 269 269 268 268 268 268 269 268 267 266 267 267 267 269 268 267 265 262 262 258 257 256 256 256 256 256 256 256 256 256 256 257 257 258 259 259 260 260 260 260
271 270 269 269 268 268 268 267 267 266 265 267 267 265 264 265 267 266 265 262 259 258 257 256 256 255 255 255 255 255 255 256 256 256 256 257 258 259 259 259 259 259 259
270 269 269 268 268 267 267 266 265 265 264 265 266 266 265 263 264 262 260 258 257 256 256 255 255 255 255 255 255 255 255 256 255 256 256 257 258 259 259 259 259 259 259
269 268 268 267 267 267 267 266 266 266 266 265 264 263 264 263 262 260 258 257 256 255 255 254 255 255 255 255 254 254 255 255 256 256 256 256 258 259 258 258 258 258 258
268 268 268 268 268 267 267 266 266 266 265 264 263 262 263 261 259 257 257 256 256 255 254 254 255 255 255 255 255 255 255 255 256 256 256 256 257 258 258 257 257 257 257
268 268 268 268 268 268 267 266 266 265 264 263 262 262 260 259 257 256 256 255 255 255 254 254 254 254 255 255 255 255 256 256 257 257 256 256 258 258 258 257 257 257 256
268 268 269 268 268 268 268 267 266 264 263 262 261 260 258 257 256 256 255 255 254 254 254 254 254 255 256 256 256 256 256 258 258 257 257 258 259 259 259 258 257 256 256
269 269 269 268 268 267 267 266 265 264 263 261 260 258 257 257 256 256 255 254 254 254 254 255 256 257 257 258 258 259 260 261 260 260 260 260 260 260 260 259 258 257 256
269 269 268 268 267 266 266 266 264 263 262 260 259 258 257 256 256 256 255 255 255 255 256 257 258 258 258 259 260 261 262 262 263 262 262 261 261 261 261 260 259 259 258
269 269 268 268 267 266 266 264 263 262 260 259 258 257 257 256 256 256 256 256 256 257 258 259 260 260 260 261 261 262 263 263 264 264 263 262 262 262 261 261 260 259 258
Wind_Speed
21 22 25 23 21 20 21 19 17 14 12 12 11 9 9 13 15 15 20 19 21 18 16 14 12 9 8 5 6 6 6 8 7 18 22 29 28 32 38 38 39 41 43
32 34 34 33 33 35 33 31 29 29 25 22 21 21 21 20 19 15 17 12 12 8 5 3 6 6 9 10 10 10 10 11 13 16 20 17 23 25 31 34 37 38 38
35 39 38 38 37 37 35 35 36 33 33 31 29 30 27 22 22 19 20 20 21 16 15 16 15 14 13 14 14 14 15 17 18 16 20 23 23 23 27 28 30 33 33
39 40 40 39 37 39 41 41 41 42 39 40 38 35 32 28 28 25 24 24 22 20 19 19 19 19 19 20 19 20 20 19 18 18 20 21 21 23 23 26 29 29 34
40 38 39 38 39 40 39 43 41 40 39 39 40 39 38 36 30 28 27 27 26 25 24 21 20 18 20 20 21 23 22 20 19 20 20 22 22 24 25 28 31 36 36
38 36 35 36 37 37 37 39 42 41 40 42 41 38 38 34 29 27 24 26 24 22 20 17 21 27 26 22 21 18 17 19 19 20 18 21 25 30 30 30 30 30 16
39 38 36 36 37 36 37 39 39 37 37 37 36 36 37 33 28 27 26 28 27 26 24 22 21 24 26 25 21 19 18 18 18 21 22 22 26 28 32 32 29 29 31
37 37 34 35 36 37 39 36 34 35 35 35 35 33 35 34 30 26 23 24 22 22 24 24 25 25 28 28 22 20 19 18 20 24 22 23 24 28 28 29 31 32 33
36 34 33 35 35 33 33 31 30 32 32 30 31 31 31 33 32 29 24 22 20 20 19 21 23 25 27 27 22 21 21 20 23 24 24 24 24 25 27 29 26 28 23
31 31 34 35 35 34 31 31 28 28 26 26 27 29 30 30 30 30 27 24 22 21 21 21 22 26 27 26 25 23 25 27 34 31 32 28 24 24 25 23 26 26 26
31 34 35 36 35 32 32 32 31 30 30 28 26 28 30 29 27 27 28 25 23 20 21 26 27 27 26 24 23 23 25 29 29 27 27 26 24 25 25 27 28 28 30
35 37 36 35 33 33 33 32 31 30 29 27 27 24 25 27 27 27 27 26 23 20 20 23 25 24 23 21 22 23 25 25 24 24 24 24 26 27 28 29 30 31 31
36 35 33 32 31 30 31 27 28 29 27 25 24 25 22 25 26 26 25 25 23 20 18 23 22 22 22 21 23 24 28 26 25 24 25 27 28 31 30 31 30 31 33
34 31 30 30 29 29 30 28 27 25 26 23 23 24 24 21 23 26 26 27 28 22 27 32 26 24 23 22 27 26 27 24 24 24 27 30 31 29 29 29 31 33 31
32 30 30 29 27 26 26 22 23 22 20 20 20 21 21 21 24 23 25 27 27 24 24 30 29 27 22 21 22 23 23 22 21 23 25 27 27 28 29 29 29 30 27
30 28 28 28 27 27 26 24 20 16 17 19 15 17 21 16 21 22 25 25 24 23 26 26 24 21 19 20 20 22 22 22 23 25 24 25 27 28 30 32 28 27 28
28 26 26 25 25 26 26 27 26 22 22 24 24 17 20 20 20 22 25 24 22 23 27 25 21 19 19 20 21 22 24 27 29 26 26 28 29 30 31 31 30 28 28
24 23 23 22 22 22 22 22 23 24 26 30 29 25 22 20 22 23 25 29 32 27 24 25 23 24 24 24 24 25 28 30 30 30 30 29 29 30 31 30 28 29 28
19 20 19 17 17 18 19 21 23 25 27 31 37 36 33 24 26 26 25 32 31 27 28 27 29 28 28 29 29 30 30 32 32 31 29 28 29 29 30 28 28 30 30
15 16 15 16 18 21 24 27 29 31 33 34 35 36 34 34 40 38 35 32 31 29 30 29 30 30 30 29 28 28 31 32 32 31 30 29 30 29 28 28 29 29 30
12 13 15 18 21 23 25 27 28 30 31 32 32 31 26 31 32 31 31 30 30 29 29 30 32 30 29 29 30 31 32 33 34 33 30 31 30 30 29 29 29 29 29
9 12 15 18 20 22 24 27 29 30 31 32 34 34 30 32 30 30 30 30 31 30 28 30 30 29 27 28 30 30 32 33 35 35 34 34 30 33 33 32 32 31 30
9 12 15 18 20 24 27 29 30 30 31 31 32 32 33 31 31 31 32 33 32 32 32 30 29 30 28 29 29 28 29 32 34 34 35 31 33 33 35 35 34 31 30
9 13 16 19 23 26 28 30 31 30 30 30 31 31 30 30 30 31 31 32 32 32 31 29 28 28 30 30 29 27 27 29 33 32 27 27 29 32 35 37 35 36 34
9 13 17 21 24 27 30 30 30 29 29 29 29 28 27 27 28 29 30 31 32 32 30 28 29 30 29 28 25 24 25 28 29 22 24 25 27 31 33 36 35 37 37
11 15 18 21 24 26 27 28 28 27 28 28 27 25 25 25 25 27 28 29 31 30 29 30 30 30 28 26 23 23 24 24 31 20 24 25 28 31 34 36 37 36 37
Wind_Direction
91 80 74 70 74 72 66 57 57 52 45 50 53 51 65 69 61 88 87 80 83 73 62 57 50 45 43 21 357 344 350 329 276 292 301 303 304 304 303 302 301 299 296
72 80 74 69 68 69 68 66 63 67 65 68 72 79 77 78 91 77 81 71 70 62 65 68 44 13 1 354 342 341 326 300 283 284 295 293 297 298 300 303 304 301 297
74 75 73 71 71 70 70 73 76 72 77 78 79 77 80 78 83 83 82 77 70 61 52 45 36 26 14 1 353 348 342 331 321 296 299 305 304 310 309 304 303 300 298
72 72 71 71 70 73 77 74 74 77 70 71 70 70 69 69 68 68 71 72 71 63 57 53 47 41 28 20 13 7 354 339 327 312 309 313 320 323 315 312 309 306 302
69 69 70 71 74 75 73 74 71 68 67 70 67 63 60 60 61 67 68 69 67 59 56 49 40 34 23 17 10 359 355 349 339 332 326 326 330 335 329 323 312 310 303
67 65 69 72 74 75 74 73 76 71 67 65 62 63 60 55 54 58 63 65 60 57 51 43 35 29 19 13 8 5 1 352 350 351 345 342 339 334 326 321 314 317 312
67 65 66 70 68 66 68 70 71 69 68 63 59 56 55 52 50 52 57 60 55 49 41 33 24 20 16 8 7 5 6 6 5 357 345 336 328 329 328 328 323 315 309
61 63 64 68 69 70 71 70 71 69 65 63 60 56 55 49 46 46 47 50 50 42 34 31 22 15 12 6 2 359 357 357 356 349 339 330 327 331 331 323 318 313 308
61 62 65 70 71 71 69 67 68 70 67 64 61 57 53 49 42 39 41 39 36 35 27 23 21 10 5 4 1 355 350 348 341 340 337 334 333 335 337 335 331 327 315
64 67 74 77 77 75 75 75 75 71 67 65 60 57 52 47 40 36 32 29 26 18 16 12 11 5 359 360 0 355 348 345 339 338 341 339 338 335 336 333 324 316 312
74 77 75 75 76 77 78 76 74 73 71 65 59 51 50 45 38 33 29 28 20 10 7 2 359 356 353 353 353 352 343 335 339 335 333 331 330 328 326 325 319 311 306
86 83 78 78 76 75 73 68 65 61 57 49 48 44 36 34 31 26 23 20 15 10 3 355 349 346 346 347 349 346 342 344 338 331 328 327 325 323 320 315 311 306 298
86 83 82 80 73 68 65 58 52 49 47 41 36 34 27 22 20 16 13 10 9 1 352 347 345 344 345 347 349 347 349 348 339 331 324 319 319 316 316 318 315 312 307
86 81 79 76 73 69 60 57 51 43 43 39 32 26 25 16 11 7 3 360 358 355 338 342 345 346 349 343 350 350 348 341 331 320 317 315 317 318 318 320 317 317 312
83 79 75 73 72 71 69 55 54 51 43 38 30 23 13 4 2 357 355 352 347 342 327 341 350 350 338 336 335 335 334 329 321 318 314 313 316 319 319 323 319 316 312
86 80 75 71 67 64 63 63 56 50 40 36 26 16 5 357 351 349 349 345 342 341 338 349 344 338 331 329 328 328 329 326 326 323 318 317 318 320 321 324 325 322 317
81 77 72 66 60 54 48 41 32 35 33 26 17 8 360 351 348 345 344 341 346 344 352 350 340 333 330 330 330 331 327 328 332 329 325 323 321 322 326 326 324 323 320
81 77 69 64 57 50 42 36 28 19 8 5 9 7 355 355 348 345 346 344 355 357 354 350 343 338 336 334 333 331 329 330 332 331 328 326 324 324 324 323 322 320 317
81 74 68 61 53 44 35 27 21 14 8 2 0 360 1 356 349 351 353 358 355 350 349 347 345 341 339 338 335 332 330 329 330 327 324 323 322 323 322 320 320 318 318
83 75 62 50 39 30 23 18 12 8 4 1 359 356 356 343 350 352 355 355 354 350 347 343 343 343 342 336 331 327 327 330 330 328 326 324 324 325 322 322 321 321 322
72 60 46 35 26 20 15 11 6 3 359 355 354 356 349 344 351 350 349 349 349 347 346 344 343 344 341 338 334 331 331 331 333 331 326 324 324 324 324 323 322 324 323
59 45 33 23 15 9 7 4 1 357 355 354 351 351 351 353 352 349 348 346 345 345 345 342 341 342 341 337 334 333 333 332 335 333 328 326 322 327 331 329 329 328 327
36 26 18 11 4 1 359 358 355 353 352 351 350 349 352 351 351 350 349 348 345 343 343 343 342 343 342 338 337 335 331 331 335 335 329 321 327 334 335 334 332 328 329
10 6 3 359 356 354 354 352 350 349 348 348 349 349 350 350 350 350 350 348 347 346 344 343 343 343 341 340 340 340 336 339 343 339 333 327 333 336 338 339 338 337 333
350 355 354 351 349 350 348 345 344 345 345 346 346 347 348 349 350 349 350 350 350 348 347 348 348 346 344 343 344 343 344 342 348 338 340 341 341 343 345 344 344 341 342
342 344 343 342 342 344 343 340 341 342 341 342 343 345 347 346 346 347 349 349 350 348 349 350 350 349 348 347 348 348 352 353 344 345 344 343 345 348 349 348 348 347 345